Fort Dodge, IA

2:26 AM CDT on August 24, 2016 (GMT -0500)
Fort Dodge Regional

Weather History for KFOD - July, 2013

Change the Weather History Date:

Friday, July 5, 2013

  Actual Average Record
Temperature  
Mean Temperature 78 °F -  
Max Temperature 89 °F 85 °F 101 °F (1977)
Min Temperature 66 °F 61 °F 43 °F (1972)
Cooling Degree Days 12    
Growing Degree Days 28 (Base 50)    
Moisture  
Dew Point 60 °F    
Average Humidity 56    
Maximum Humidity 73    
Minimum Humidity 40    
Precipitation  
Precipitation 0.00 in - - ()
Sea Level Pressure  
Sea Level Pressure 29.93 in    
Wind  
Wind Speed 12 mph (South)    
Max Wind Speed 21 mph    
Max Gust Speed 29 mph    
Visibility 10 miles    
Events      
Averages and records for this station are not official NWS values.
T = Trace of Precipitation, MM = Missing Value Source: NWS Daily Summary

Daily Weather History Graph

Daily Weather History Graph

Search for Another Location

Airport or City:

Trip Planner

Search our weather history database for the weather conditions in past years. The results will help you decide how hot, cold, wet, or windy it might be!

Date:

Astronomy

Jul. 05, 2013 Rise Set
Actual Time 5:45 AM CDT 8:57 PM CDT
Civil Twilight 5:10 AM CDT 9:31 PM CDT
Nautical Twilight 4:26 AM CDT 10:15 PM CDT
Astronomical Twilight 3:32 AM CDT 11:09 PM CDT
Moon 3:46 AM CDT (7/5) 6:51 PM CDT (7/5)
Length of Visible Light 16h 20m
Length of Day
15h 11m
Waning Crescent, 6% of the Moon is Illuminated
Jul 5
Waning Crescent
Jul 8
New
Jul 15
First Quarter
Jul 22
Full
Jul 29
Last Quarter

Hourly Weather History & Observations

Time (CDT) Temp. Heat Index Dew Point Humidity Pressure Visibility Wind Dir Wind Speed Gust Speed Precip Events Conditions
12:15 AM 71.6 °F - 57.2 °F 60% 29.96 in 10.0 mi South 12.7 mph 16.1 mph N/A   Clear
12:35 AM 71.6 °F - 57.2 °F 60% 29.96 in 10.0 mi South 9.2 mph - N/A   Clear
12:55 AM 71.6 °F - 57.2 °F 60% 29.97 in 10.0 mi South 10.4 mph 17.3 mph N/A   Clear
1:15 AM 71.6 °F - 57.2 °F 60% 29.96 in 10.0 mi South 11.5 mph 18.4 mph N/A   Clear
1:35 AM 71.6 °F - 57.2 °F 60% 29.96 in 10.0 mi South 11.5 mph 17.3 mph N/A   Clear
1:55 AM 69.8 °F - 57.2 °F 64% 29.95 in 10.0 mi South 10.4 mph 17.3 mph N/A   Clear
2:15 AM 69.8 °F - 57.2 °F 64% 29.96 in 10.0 mi South 8.1 mph - N/A   Clear
2:35 AM 69.8 °F - 57.2 °F 64% 29.95 in 10.0 mi South 8.1 mph - N/A   Clear
2:55 AM 69.8 °F - 57.2 °F 64% 29.95 in 10.0 mi South 9.2 mph - N/A   Clear
3:15 AM 69.8 °F - 57.2 °F 64% 29.96 in 10.0 mi South 11.5 mph - N/A   Clear
3:35 AM 68.0 °F - 57.2 °F 68% 29.96 in 10.0 mi South 10.4 mph - N/A   Clear
3:55 AM 68.0 °F - 57.2 °F 68% 29.95 in 10.0 mi South 11.5 mph 17.3 mph N/A   Clear
4:15 AM 68.0 °F - 57.2 °F 68% 29.96 in 10.0 mi South 11.5 mph 17.3 mph N/A   Partly Cloudy
4:35 AM 68.0 °F - 57.2 °F 68% 29.96 in 10.0 mi South 9.2 mph - N/A   Clear
4:55 AM 68.0 °F - 57.2 °F 68% 29.95 in 10.0 mi South 10.4 mph - N/A   Clear
5:15 AM 68.0 °F - 57.2 °F 68% 29.97 in 10.0 mi SSW 12.7 mph - N/A   Clear
5:35 AM 66.2 °F - 57.2 °F 73% 29.96 in 10.0 mi South 10.4 mph 16.1 mph N/A   Clear
5:55 AM 66.2 °F - 57.2 °F 73% 29.95 in 10.0 mi South 10.4 mph - N/A   Clear
6:15 AM 66.2 °F - 57.2 °F 73% 29.95 in 10.0 mi South 11.5 mph - N/A   Clear
6:35 AM 66.2 °F - 57.2 °F 73% 29.95 in 10.0 mi South 9.2 mph 16.1 mph N/A   Clear
6:55 AM 66.2 °F - 57.2 °F 73% 29.96 in 10.0 mi South 9.2 mph - N/A   Clear
7:15 AM 68.0 °F - 57.2 °F 68% 29.96 in 10.0 mi South 9.2 mph - N/A   Clear
7:35 AM 69.8 °F - 57.2 °F 64% 29.96 in 10.0 mi South 10.4 mph - N/A   Clear
7:55 AM 71.6 °F - 59.0 °F 64% 29.96 in 10.0 mi SSW 11.5 mph - N/A   Clear
8:15 AM 71.6 °F - 59.0 °F 64% 29.96 in 10.0 mi South 11.5 mph 16.1 mph N/A   Clear
8:35 AM 73.4 °F - 60.8 °F 65% 29.96 in 10.0 mi South 11.5 mph - N/A   Clear
8:55 AM 73.4 °F - 60.8 °F 65% 29.96 in 10.0 mi South 11.5 mph 19.6 mph N/A   Clear
9:15 AM 75.2 °F - 60.8 °F 61% 29.96 in 10.0 mi South 10.4 mph - N/A   Clear
9:35 AM 77.0 °F - 62.6 °F 61% 29.96 in 10.0 mi South 12.7 mph 18.4 mph N/A   Clear
9:55 AM 78.8 °F - 62.6 °F 57% 29.95 in 10.0 mi South 12.7 mph - N/A   Clear
10:15 AM 80.6 °F 81.8 °F 62.6 °F 54% 29.94 in 10.0 mi South 12.7 mph 19.6 mph N/A   Clear
10:35 AM 80.6 °F 81.8 °F 62.6 °F 54% 29.94 in 10.0 mi South 10.4 mph 20.7 mph N/A   Clear
10:55 AM 82.4 °F 83.9 °F 64.4 °F 54% 29.94 in 10.0 mi South 10.4 mph - N/A   Clear
11:15 AM 84.2 °F 85.0 °F 62.6 °F 48% 29.93 in 10.0 mi South 20.7 mph - N/A   Clear
11:35 AM 84.2 °F 85.0 °F 62.6 °F 48% 29.93 in 10.0 mi SSW 16.1 mph 26.5 mph N/A   Clear
11:55 AM 84.2 °F 85.0 °F 62.6 °F 48% 29.93 in 10.0 mi SSW 20.7 mph 27.6 mph N/A   Clear
12:15 PM 86.0 °F 86.6 °F 62.6 °F 45% 29.92 in 10.0 mi SSW 19.6 mph 27.6 mph N/A   Clear
12:35 PM 86.0 °F 86.6 °F 62.6 °F 45% 29.92 in 10.0 mi South 17.3 mph 25.3 mph N/A   Clear
12:55 PM 87.8 °F 88.5 °F 62.6 °F 43% 29.92 in 10.0 mi SSW 20.7 mph 25.3 mph N/A   Clear
1:15 PM 87.8 °F 88.5 °F 62.6 °F 43% 29.91 in 10.0 mi SSW 18.4 mph 28.8 mph N/A   Clear
1:35 PM 89.6 °F 90.1 °F 62.6 °F 40% 29.91 in 10.0 mi SSW 18.4 mph 27.6 mph N/A   Clear
1:55 PM 89.6 °F 91.1 °F 64.4 °F 43% 29.91 in 10.0 mi SSW 19.6 mph 26.5 mph N/A   Clear
2:15 PM 86.0 °F 86.6 °F 62.6 °F 45% 29.91 in 10.0 mi SSW 15.0 mph 25.3 mph N/A   Clear
2:35 PM 84.2 °F 85.0 °F 62.6 °F 48% 29.91 in 10.0 mi South 10.4 mph 20.7 mph N/A   Clear
2:55 PM 86.0 °F 86.6 °F 62.6 °F 45% 29.90 in 10.0 mi South 15.0 mph 23.0 mph N/A   Clear
3:15 PM 87.8 °F 88.5 °F 62.6 °F 43% 29.90 in 10.0 mi South 17.3 mph 23.0 mph N/A   Clear
3:35 PM 84.2 °F 84.4 °F 60.8 °F 45% 29.90 in 10.0 mi South 17.3 mph 24.2 mph N/A   Clear
3:55 PM 82.4 °F 83.9 °F 64.4 °F 54% 29.90 in 10.0 mi SSW 15.0 mph 21.9 mph N/A   Mostly Cloudy
4:15 PM 82.4 °F 83.4 °F 62.6 °F 51% 29.90 in 10.0 mi South 10.4 mph - N/A   Mostly Cloudy
4:35 PM 84.2 °F 85.6 °F 64.4 °F 51% 29.89 in 10.0 mi South 9.2 mph - N/A   Scattered Clouds
4:55 PM 86.0 °F 87.3 °F 64.4 °F 48% 29.89 in 10.0 mi South 11.5 mph 17.3 mph N/A   Scattered Clouds
5:15 PM 86.0 °F 86.6 °F 62.6 °F 45% 29.89 in 10.0 mi South 11.5 mph 18.4 mph N/A   Scattered Clouds
5:35 PM 87.8 °F 88.5 °F 62.6 °F 43% 29.89 in 10.0 mi South 16.1 mph 23.0 mph N/A   Partly Cloudy
5:55 PM 87.8 °F 88.5 °F 62.6 °F 43% 29.88 in 10.0 mi SSW 16.1 mph 21.9 mph N/A   Partly Cloudy
6:15 PM 86.0 °F 86.1 °F 60.8 °F 43% 29.88 in 10.0 mi South 16.1 mph 23.0 mph N/A   Partly Cloudy
6:35 PM 86.0 °F 86.6 °F 62.6 °F 45% 29.88 in 10.0 mi South 17.3 mph 24.2 mph N/A   Clear
6:55 PM 84.2 °F 84.4 °F 60.8 °F 45% 29.88 in 10.0 mi South 11.5 mph 23.0 mph N/A   Clear
7:15 PM 84.2 °F 85.0 °F 62.6 °F 48% 29.88 in 10.0 mi South 13.8 mph 21.9 mph N/A   Clear
7:35 PM 84.2 °F 84.4 °F 60.8 °F 45% 29.89 in 10.0 mi South 15.0 mph 21.9 mph N/A   Clear
7:55 PM 82.4 °F 82.9 °F 60.8 °F 48% 29.89 in 10.0 mi South 15.0 mph 20.7 mph N/A   Clear
8:15 PM 82.4 °F 82.9 °F 60.8 °F 48% 29.89 in 10.0 mi South 11.5 mph 16.1 mph N/A   Clear
8:35 PM 80.6 °F 81.5 °F 60.8 °F 51% 29.90 in 10.0 mi South 11.5 mph 18.4 mph N/A   Clear
8:55 PM 80.6 °F 81.5 °F 60.8 °F 51% 29.90 in 10.0 mi South 11.5 mph - N/A   Clear
9:15 PM 78.8 °F - 60.8 °F 54% 29.90 in 10.0 mi South 10.4 mph 16.1 mph N/A   Clear
9:35 PM 78.8 °F - 60.8 °F 54% 29.91 in 10.0 mi South 9.2 mph - N/A   Clear
9:55 PM 78.8 °F - 59.0 °F 51% 29.91 in 10.0 mi South 10.4 mph - N/A   Clear
10:15 PM 78.8 °F - 59.0 °F 51% 29.91 in 10.0 mi South 9.2 mph 18.4 mph N/A   Clear
10:35 PM 77.0 °F - 59.0 °F 54% 29.92 in 10.0 mi South 10.4 mph - N/A   Clear
10:55 PM 77.0 °F - 59.0 °F 54% 29.91 in 10.0 mi South 11.5 mph 18.4 mph N/A   Clear
11:15 PM 77.0 °F - 59.0 °F 54% 29.92 in 10.0 mi South 10.4 mph 20.7 mph N/A   Clear
11:35 PM 75.2 °F - 59.0 °F 57% 29.92 in 10.0 mi South 12.7 mph 18.4 mph N/A   Clear
11:55 PM 75.2 °F - 59.0 °F 57% 29.92 in 10.0 mi South 10.4 mph - N/A   Clear